Flag for U.S.A. Weather past 2 weeks in Sunnyvale, California, U.S.A.

Now
66 °F

Sunny.


Feels Like: 66 °F
Forecast: 49 / 72 °F
Wind: 18 mph from North

Location: Moffett Field

Current Time: Mar 30, 2015 at 4:18:26 PM

Latest Report: Mar 30, 2015 at 3:56 PM


Visibility: 10 mi

Pressure: 30.04 "Hg

Humidity: 65%

Dew point: 54 °F

Location of SunnyvaleLocation

Historic Weather in Sunnyvale — Graph

°F

Sunnyvale temperature yesterday

Maximum temperature yesterday: 75 °F (at 2:56 PM)
Minimum temperature yesterday: 50 °F (at 6:56 AM)
Average temperature yesterday: 61 °F

Past Weeks' High & Low Weather Summary

 TemperatureHumidityPressure
High82 °F (Mar 26, 3:56 PM)90% (Mar 23, 1:56 AM)30.33 "Hg (Mar 23, 1:56 AM)
Low48 °F (Mar 18, 4:56 AM)27% (Mar 19, 12:56 PM)30.00 "Hg (Mar 19, 6:56 PM)
Average61 °F67%30.13 "Hg
* Reported Mar 15 2:56 PM — Mar 30 2:56 PM, Sunnyvale, Weather by CustomWeather, © 2015

Note: Actual official high and low records may vary slightly from our data, if they occured in-between our weather recording intervals... More about our weather records

Advertising

Sunnyvale weather history for previous 24 hours

 ConditionsComfort  
Time TempWeatherWind HumidityBarometerVisibility
2:56 PM
Mon, Mar 30
66 °FSunny.20 mph65%30.05 "Hg10 mi
1:56 PM66 °FSunny.12 mph63%30.06 "Hg10 mi
12:56 PM66 °FSunny.8 mph63%30.08 "Hg10 mi
11:56 AM66 °FSunny.5 mph63%30.08 "Hg10 mi
10:56 AM64 °FSunny.9 mph68%30.09 "Hg10 mi
9:56 AM61 °FSunny.8 mph75%30.08 "Hg10 mi
8:56 AM60 °FSunny.No wind78%30.06 "Hg10 mi
7:56 AM54 °FSunny.No wind83%30.06 "Hg10 mi
6:56 AM53 °FClear.No wind77%30.04 "Hg10 mi
5:56 AM53 °FClear.No wind77%30.03 "Hg10 mi
4:56 AM53 °FClear.No wind80%30.03 "Hg10 mi
3:56 AM52 °FClear.No wind80%30.04 "Hg10 mi
2:56 AM56 °FClear.No wind81%30.04 "Hg10 mi
1:56 AM56 °FClear.No wind77%30.04 "Hg10 mi
12:56 AM58 °FClear.No wind75%30.05 "Hg10 mi
11:56 PM
Sun, Mar 29
59 °FClear.No wind78%30.05 "Hg10 mi
10:56 PM60 °FClear.No wind78%30.06 "Hg10 mi
9:56 PM58 °FClear.No wind78%30.06 "Hg10 mi
8:56 PM60 °FClear.3 mph78%30.05 "Hg10 mi
7:56 PM62 °FSunny.6 mph75%30.03 "Hg10 mi
6:56 PM66 °FSunny.9 mph63%30.02 "Hg10 mi
5:56 PM70 °FSunny.8 mph53%30.02 "Hg10 mi
4:56 PM73 °FSunny.8 mph43%30.02 "Hg10 mi
Weather by CustomWeather, © 2015

See weather overviewHow to use our weather pages